Location: Cheyres
(46.8153°N, 6.7877°E)
Time: 13:13:28
(UTC+00:00)

Cosmos 990 Rocket - Pass Details

Date: 27 September 2021
Orbit: 746 x 769 km, 74.0° (Epoch: 24 October)

Event Time Altitude Azimuth Distance (km) Brightness Sun altitude
Rises 03:08:59 0° 351° (N) 3,238 7.4 -23.7°
Reaches altitude 10° 03:14:25 10° 37° (NE) 2,313 7.3 -22.8°
Maximum altitude 03:14:46 10° 41° (NE) 2,309 7.4 -22.8°
Drops below altitude 10° 03:15:07 10° 45° (NE) 2,313 7.4 -22.7°
Sets 03:20:31 0° 91° (E) 3,239 8.4 -21.9°
